Flag for Germany Weather past 2 weeks in Alsdorf, North Rhine-Westphalia, Germany

Now
59 °F

Passing clouds.


Feels Like: 60 °F
Forecast: 48 / 59 °F
Wind: 3 mph from North

Location: Maastricht Airport Zuid Limburg

Current Time: May 24, 2015 at 11:27:16 AM

Latest Report: May 24, 2015 at 10:55 AM


Visibility: N/A

Pressure: 30.12 "Hg

Humidity: 63%

Dew point: 46 °F

Location of AlsdorfLocation

Historic Weather in Alsdorf — Graph

°F

Alsdorf temperature yesterday

Maximum temperature yesterday: 66 °F (at 12:55 PM)
Minimum temperature yesterday: 48 °F (at 3:55 AM)
Average temperature yesterday: 56 °F

Past Weeks' High & Low Weather Summary

 TemperatureHumidityPressure
High79 °F (May 11, 3:55 PM)100% (May 16, 5:25 PM)30.33 "Hg (May 16, 5:25 PM)
Low39 °F (May 21, 4:25 AM)32% (May 11, 4:25 PM)29.68 "Hg (May 18, 5:25 PM)
Average56 °F69%30.08 "Hg
* Reported May 9 10:25 AM — May 24 10:25 AM, Alsdorf, Weather by CustomWeather, © 2015

Note: Actual official high and low records may vary slightly from our data, if they occured in-between our weather recording intervals... More about our weather records

Advertising

Alsdorf weather history for previous 24 hours

 ConditionsComfort  
Time TempWeatherWind HumidityBarometerVisibility
10:25 AM
Sun, May 24
59 °FClear.2 mph68%30.12 "HgN/A
9:55 AM57 °FClear.2 mph67%30.12 "HgN/A
9:25 AM55 °FClear.1 mph72%30.12 "HgN/A
8:55 AM54 °FClear.2 mph77%30.12 "HgN/A
8:25 AM52 °FClear.2 mph77%30.12 "HgN/A
7:55 AM52 °FOvercast.1 mph82%30.12 "HgN/A
7:25 AM48 °FPartly sunny.2 mph87%30.12 "HgN/A
6:55 AM46 °FPassing clouds.3 mph87%30.12 "HgN/A
6:25 AM45 °FPassing clouds.6 mph93%30.12 "HgN/A
5:55 AM45 °FPassing clouds.5 mph87%30.12 "HgN/A
5:25 AM46 °FOvercast.5 mph87%30.12 "HgN/A
4:55 AM46 °FOvercast.3 mph87%30.12 "HgN/A
4:25 AM46 °FPassing clouds.6 mph87%30.12 "HgN/A
3:55 AM46 °FPassing clouds.7 mph87%30.12 "HgN/A
3:25 AM48 °FPassing clouds.8 mph87%30.12 "HgN/A
2:55 AM50 °FPassing clouds.8 mph88%30.15 "HgN/A
2:25 AM52 °FPassing clouds.9 mph82%30.15 "HgN/A
1:55 AM52 °FOvercast.5 mph88%30.15 "HgN/A
1:25 AM52 °FOvercast.3 mph88%30.15 "HgN/A
12:55 AM52 °FPassing clouds.3 mph88%30.15 "HgN/A
12:25 AM52 °FClear.3 mph88%30.15 "HgN/A
11:55 PM
Sat, May 23
52 °FClear.5 mph88%30.15 "HgN/A
11:25 PM54 °FClear.5 mph82%30.15 "HgN/A
10:55 PM54 °FClear.6 mph82%30.15 "HgN/A
10:25 PM55 °FClear.6 mph77%30.15 "HgN/A
9:55 PM55 °FPassing clouds.7 mph82%30.15 "HgN/A
9:25 PM55 °FPartly sunny.7 mph82%30.15 "HgN/A
8:55 PM57 °FMore clouds than sun.8 mph77%30.15 "HgN/A
8:25 PM57 °FMostly cloudy.9 mph77%30.15 "HgN/A
7:55 PM57 °FMostly cloudy.8 mph77%30.15 "HgN/A
7:25 PM57 °FCloudy.10 mph82%30.15 "HgN/A
6:55 PM57 °FMore clouds than sun.10 mph82%30.15 "HgN/A
6:25 PM57 °FMostly cloudy.10 mph82%30.15 "HgN/A
5:55 PM57 °FMostly cloudy.13 mph88%30.15 "HgN/A
5:25 PM59 °FMostly cloudy.13 mph82%30.15 "HgN/A
4:55 PM59 °FMore clouds than sun.13 mph88%30.15 "Hg6 mi
4:25 PM61 °FPassing clouds.9 mph83%30.12 "Hg4 mi
3:55 PM61 °FClear.9 mph83%30.15 "Hg4 mi
3:25 PM61 °FLight rain. Cloudy.10 mph83%30.15 "Hg4 mi
2:55 PM63 °FDrizzle. Overcast.13 mph73%30.12 "HgN/A
2:25 PM66 °FPassing clouds.6 mph56%30.12 "HgN/A
1:55 PM66 °FPassing clouds.5 mph56%30.12 "HgN/A
1:25 PM66 °FScattered clouds.7 mph56%30.15 "HgN/A
12:55 PM66 °FScattered clouds.3 mph52%30.15 "HgN/A
12:25 PM64 °FClear.5 mph60%30.15 "HgN/A
11:55 AM64 °FClear.5 mph52%30.18 "HgN/A
11:25 AM63 °FClear.5 mph64%30.18 "HgN/A
Weather by CustomWeather, © 2015

See weather overviewHow to use our weather pages